Simultaneous Nadir Overpasses (SNOs) Predictions

Prediction of SNOs between LANDSAT-8 and METOP-B Satellite Orbit:

Table of predicted SNOs for the next 14.0 days since TLE Epoch: 10/23/2021
Index Date (LANDSAT-8) Time (LANDSAT-8) Lat,Lon (LANDSAT-8) SZA (LANDSAT-8 ) Date (METOP-B) Time (METOP-B) Lat,Lon (METOP-B) SZA (METOP-B ) Distance(km) Time Diff (sec)
1 10/25/2021 01:02:29 81.14,-155.42 95.67 10/25/2021 01:02:19 81.14,-155.24 95.68 2.97 10
2 10/25/2021 01:51:55 -81.15, 12.49 84.29 10/25/2021 01:52:59 -81.16, 12.59 84.25 1.74 64
3 10/27/2021 19:47:54 -80.10, 91.51 85.39 10/27/2021 19:46:40 -80.41, 90.34 85.25 41.21 74
4 10/27/2021 20:36:44 81.14, -88.92 96.63 10/27/2021 20:36:42 81.14, -88.90 96.63 0.35 2
5 10/27/2021 21:26:10 -81.16, 79.02 83.32 10/27/2021 21:27:22 -81.16, 78.95 83.29 1.22 72
6 10/30/2021 15:21:33 -81.11, 169.47 82.52 10/30/2021 15:20:25 -81.12, 169.65 82.52 3.28 68
7 10/30/2021 16:10:58 81.14, -22.46 97.56 10/30/2021 16:11:04 81.14, -22.58 97.55 2.15 6
8 11/02/2021 10:55:48 -81.11,-124.10 81.62 11/02/2021 10:54:48 -81.12,-124.04 81.64 1.13 60
9 11/02/2021 11:45:13 81.14, 43.94 98.46 11/02/2021 11:45:26 81.15, 44.09 98.48 2.61 13
10 11/05/2021 06:30:03 -81.11, -57.71 80.76 11/05/2021 06:29:11 -81.11, -57.75 80.79 0.79 52



Historial Predications of SNOs between LANDSAT-8 and METOP-B
